Showing default

IRIDIUM 176, 43923

Orbit data source: Space-Track

IRIDIUM 176, 43923 is a payload satellite owned by Iridium (US) in LEO that was launched on Fri, 11 Jan 2019 UTC via an FALCON 9 launch vehicle from the Air Force Western Test Range (AFWTR). Payloads include a variety of satellites, spacecraft, and rockets equipped with specific instruments for various scientific and technological missions. These include communications satellites like Starlink; space stations such as the ISS; scientific satellites like the Hubble; Earth observation satellites from companies like Planet Labs, Umbra, and HawkEye 360; GPS; miniature CubeSats for education and research; and military/defense satellites.

Loading next visibility...
IRIDIUM 176 details
Identifier
43923, 2019-002B
Orbit
LEO
Last TLE update1 day ago
Origin
Flag of USIridium (US)
ManufacturerNGIS SSG Gilbert
MissionOperational Commercial Communications
Bus & MotorELITEBUS, Unknown motor
Mass860 kg wet, 700 kg dry
Launch date (UTC)
2019-01-11 (6 years ago)
Launch vehicle
FALCON 9
Launch site
Air Force Western Test Range (AFWTR)
Object type
Payload
Rocket body
Debris
Shape & HBRTrap Box + 2 Pan, 9.4 m
Radar Cross Section14.423 m², Large (>1 m²)

Expand to show TLE details & history

TLE from 1 day ago
0 IRIDIUM 176
1 43923U 19002B   24347.66905146  .00001590  00000-0  24823-3 0  9997
2 43923  86.6118 224.0440 0003145  79.2753 280.8818 14.72249909318100
Epoch: 2024-12-12T16:03Z
Definitive object data (Epoch: 2024-12-12T16:03:26.046Z)
Latitude-0.00002°
Longitude-98.6606°
Altitude656.585 km
Speed7.529 km/s
True Right ascension14h 56m 10s
True Declination0° 00' 00"
Sunlit
Object was in daylight at TLE epoch
Visualization TLE readout
Latitude-82.05853°
Longitude-124.13373°
Altitude684.358 km
Speed7.512 km/s
Apparent Right ascension08h 18m 34s
Apparent Declination-65° 18' 18"
Sunlit
Object is in daylight
Visualization observer readout
Local Sidereal Time19:34:17
Azimuth190.476° SSW
Elevation-63.826°
Doppler factor1
Orbital elements
Apogee altitude653.012 km
Perigee altitude648.591 km
Semi-major axis7,028.938 km
Eccentricity0.0003145
Inclination86.6118°
RAAN224.044°
Arg. of periapsis79.2753°
True anomaly280.84641°
Mean anomaly280.8818°
Eccentric anomaly280.8641°
Mean motion3.68306 °/min
BSTAR0.00024823
Orbital period97.74 mins
Loading maneuver chart data...
Loading historical data...
Loading historical data...
Loading historical data...
Loading historical data...
Loading historical data...
Loading historical data...
Loading historical data...

IRIDIUM 176 Visibility forecast

Observer location: undefined°, undefined

Span
Click to sort rows by Start time (UTC) header in descending order
Start Az.
Max El. time (UTC)
Max El. Az.
Max El.
End time (UTC)
End Az.
4 mins2024-12-14 02:54:37.393Z52.35° ENE2024-12-14 02:56:37.393Z81.617° E14.368°2024-12-14 02:58:37.393Z108.766° ESE
7 mins2024-12-14 04:31:37.393Z338.901° N2024-12-14 04:34:37.393Z273.696° WNW36.018°2024-12-14 04:38:37.393Z201.122° SSW
5 mins2024-12-14 15:30:37.393Z118.348° SE2024-12-14 15:32:37.393Z85.024° E20.219°2024-12-14 15:35:37.393Z38.056° NE
6 mins2024-12-14 17:08:37.393Z234.376° WSW2024-12-14 17:10:37.393Z277.248° WNW27.41°2024-12-14 17:14:37.393Z340.821° N
|